Location: ?????????
(54.7630°N, 39.4991°E)
Time: 10:43:37
(UTC+00:00)

SL-08 R/B - Pass Details

Date: 14 April 2026
Orbit: 667 x 729 km, 98.5° (Epoch: 19 May)

Event Time Altitude Azimuth Distance (km) Brightness Sun altitude
Rises 17:48:28 0° 17° (NNE) 3,146 6.9 -11.7°
Reaches altitude 10° 17:50:46 10° 21° (NNE) 2,227 6.1 -12.0°
Maximum altitude 17:55:38 64° 103° (ESE) 808 3.4 -12.5°
Drops below altitude 10° 18:00:30 10° 185° (S) 2,223 5.6 -13.1°
Sets 18:02:48 0° 188° (S) 3,140 6.4 -13.3°
